Brussels, Belgium

11:44 PM CET on January 21, 2018 (GMT +0100)
Brussels Airport

Weather History for EBBR - November, 2012

Change the Weather History Date:

Monday, November 26, 2012

  Actual Average Record
Temperature  
Mean Temperature 48 °F -  
Max Temperature 53 °F 42 °F 57 °F (2006)
Min Temperature 42 °F 35 °F 32 °F (2005)
Degree Days  
Heating Degree Days 18    
Moisture  
Dew Point 41 °F    
Average Humidity 77    
Maximum Humidity 87    
Minimum Humidity 53    
Precipitation  
Precipitation 0.00 in - - ()
Sea Level Pressure  
Sea Level Pressure 29.64 in    
Wind  
Wind Speed 10 mph ()    
Max Wind Speed 16 mph    
Max Gust Speed 25 mph    
Visibility 7.8 miles    
Events Rain    
Averages and records for this station are not official NWS values.
T = Trace of Precipitation, MM = Missing Value Source: Averaged Metar Reports

Daily Weather History Graph

Daily Weather History Graph

Search for Another Location

Airport or City:

Trip Planner

Search our weather history database for the weather conditions in past years. The results will help you decide how hot, cold, wet, or windy it might be!

Date:

Astronomy

Nov. 26, 2012 Rise Set
Actual Time 8:15 AM CET 4:42 PM CET
Civil Twilight 7:37 AM CET 5:20 PM CET
Nautical Twilight 6:56 AM CET 6:01 PM CET
Astronomical Twilight 6:17 AM CET 6:40 PM CET
Moon 3:32 PM CET (11/26) 6:02 AM CET (11/26)
Length of Visible Light 9h 42m
Length of Day
8h 26m
Waxing Gibbous, 96% of the Moon is Illuminated
Nov 26
Waxing Gibbous
Nov 28
Full
Dec 6
Last Quarter
Dec 13
New
Dec 20
First Quarter

Hourly Weather History & Observations

Time (CET) Temp. Windchill Dew Point Humidity Pressure Visibility Wind Dir Wind Speed Gust Speed Precip Events Conditions
12:20 AM 44.6 °F 38.8 °F 39.2 °F 81% 29.83 in - South 11.5 mph - N/A   Clear
12:50 AM 44.6 °F 38.4 °F 39.2 °F 81% 29.83 in - South 12.7 mph - N/A   Clear
1:00 AM 44 °F - 40 °F 79% 29.83 in 19 mi South 13.4 mph - -   Clear
1:20 AM 42.8 °F 36.6 °F 39.2 °F 87% 29.80 in - South 11.5 mph - N/A   Clear
1:50 AM 44.6 °F 38.8 °F 39.2 °F 81% 29.80 in - South 11.5 mph - N/A   Clear
2:20 AM 42.8 °F 38.0 °F 39.2 °F 87% 29.80 in - South 8.1 mph - N/A   Clear
2:50 AM 42.8 °F 38.0 °F 39.2 °F 87% 29.77 in - South 8.1 mph - N/A   Clear
3:20 AM 42.8 °F 37.5 °F 39.2 °F 87% 29.77 in 6.2 mi South 9.2 mph - N/A   Partly Cloudy
3:50 AM 42.8 °F 37.0 °F 39.2 °F 87% 29.77 in - South 10.4 mph - N/A   Clear
4:00 AM 42 °F - 39 °F 86% 29.78 in 19 mi South 8.9 mph - -   Mostly Cloudy
4:20 AM 42.8 °F 36.6 °F 39.2 °F 87% 29.74 in - South 11.5 mph - N/A   Clear
4:50 AM 42.8 °F 37.0 °F 39.2 °F 87% 29.74 in - South 10.4 mph - N/A   Clear
5:20 AM 44.6 °F 38.8 °F 39.2 °F 81% 29.71 in - South 11.5 mph - N/A   Clear
5:50 AM 44.6 °F 39.2 °F 41.0 °F 87% 29.71 in - South 10.4 mph - N/A   Clear
6:20 AM 44.6 °F 39.7 °F 39.2 °F 81% 29.71 in - South 9.2 mph - N/A   Clear
6:50 AM 44.6 °F 38.8 °F 41.0 °F 87% 29.68 in 6.2 mi SSE 11.5 mph - N/A   Mostly Cloudy
7:00 AM 45 °F - 41 °F 79% 29.71 in 12 mi SSE 11.2 mph - - Rain Light Rain
7:20 AM 44.6 °F 39.2 °F 39.2 °F 81% 29.68 in 6.2 mi SSE 10.4 mph - N/A   Mostly Cloudy
7:50 AM 46.4 °F 41.9 °F 39.2 °F 76% 29.68 in 6.2 mi SSE 9.2 mph - N/A   Mostly Cloudy
8:20 AM 46.4 °F 40.7 °F 39.2 °F 76% 29.65 in 6.2 mi SSE 12.7 mph - N/A   Mostly Cloudy
8:50 AM 46.4 °F 41.1 °F 39.2 °F 76% 29.65 in 6.2 mi SSE 11.5 mph - N/A   Mostly Cloudy
9:20 AM 46.4 °F 41.5 °F 41.0 °F 81% 29.65 in 6.2 mi SSE 10.4 mph - N/A   Mostly Cloudy
9:50 AM 46.4 °F 41.5 °F 42.8 °F 87% 29.65 in 6.2 mi South 10.4 mph - N/A   Mostly Cloudy
10:00 AM 47 °F - 43 °F 80% 29.67 in 12 mi South 11.2 mph - -   Mostly Cloudy
10:20 AM 46.4 °F 41.5 °F 42.8 °F 87% 29.65 in 6.2 mi South 10.4 mph - N/A   Mostly Cloudy
10:50 AM 50.0 °F - 44.6 °F 82% 29.62 in 6.2 mi South 9.2 mph - N/A   Scattered Clouds
11:20 AM 50.0 °F - 44.6 °F 82% 29.62 in 6.2 mi South 10.4 mph - N/A Rain Light Rain
11:50 AM 50.0 °F - 44.6 °F 82% 29.62 in 6.2 mi South 12.7 mph - N/A   Mostly Cloudy
12:20 PM 50.0 °F - 46.4 °F 87% 29.59 in 6.2 mi South 9.2 mph - N/A   Scattered Clouds
12:50 PM 51.8 °F - 46.4 °F 82% 29.59 in 6.2 mi South 9.2 mph - N/A   Scattered Clouds
1:00 PM 51 °F - 46 °F 76% 29.61 in 11 mi South 8.9 mph - -   Partly Cloudy
1:20 PM 51.8 °F - 46.4 °F 82% 29.59 in 6.2 mi South 11.5 mph - N/A   Scattered Clouds
1:50 PM 53.6 °F - 44.6 °F 72% 29.56 in 6.2 mi South 13.8 mph 25.3 mph N/A   Partly Cloudy
2:20 PM 53.6 °F - 44.6 °F 72% 29.56 in 6.2 mi SSW 11.5 mph - N/A   Partly Cloudy
2:50 PM 53.6 °F - 44.6 °F 72% 29.53 in 6.2 mi SSW 12.7 mph - N/A   Partly Cloudy
3:20 PM 53.6 °F - 44.6 °F 72% 29.53 in 6.2 mi SSW 13.8 mph - N/A   Scattered Clouds
3:50 PM 53.6 °F - 44.6 °F 72% 29.53 in 6.2 mi SSW 9.2 mph - N/A   Partly Cloudy
4:00 PM 53 °F - 44 °F 64% 29.56 in 16 mi SSW 8.9 mph - -   Partly Cloudy
4:20 PM 51.8 °F - 42.8 °F 71% 29.53 in 6.2 mi SSW 10.4 mph - N/A   Partly Cloudy
4:50 PM 51.8 °F - 42.8 °F 71% 29.53 in 6.2 mi SSW 10.4 mph - N/A   Partly Cloudy
5:20 PM 50.0 °F - 42.8 °F 76% 29.53 in 6.2 mi South 6.9 mph - N/A   Partly Cloudy
5:50 PM 50.0 °F - 42.8 °F 76% 29.53 in 6.2 mi South 8.1 mph - N/A   Scattered Clouds
6:20 PM 51.8 °F - 42.8 °F 71% 29.56 in 6.2 mi SW 10.4 mph - N/A   Scattered Clouds
6:50 PM 50.0 °F - 37.4 °F 62% 29.56 in 6.2 mi SW 16.1 mph - N/A   Partly Cloudy
7:00 PM 50 °F - 38 °F 53% 29.58 in 16 mi SW 15.7 mph - - Rain Light Rain Showers
7:20 PM 48.2 °F - 37.4 °F 66% 29.56 in 6.2 mi SW 11.5 mph - N/A   Partly Cloudy
7:50 PM 48.2 °F - 39.2 °F 71% 29.56 in 6.2 mi SSW 10.4 mph - N/A   Scattered Clouds
8:20 PM 48.2 °F - 39.2 °F 71% 29.56 in 6.2 mi SSW 9.2 mph - N/A   Partly Cloudy
8:50 PM 48.2 °F - 39.2 °F 71% 29.56 in 6.2 mi SSW 10.4 mph - N/A   Partly Cloudy
9:20 PM 48.2 °F - 39.2 °F 71% 29.56 in 6.2 mi SSW 8.1 mph - N/A   Partly Cloudy
9:50 PM 48.2 °F - 39.2 °F 71% 29.56 in 6.2 mi South 9.2 mph - N/A   Scattered Clouds
10:00 PM 48 °F - 39 °F 61% 29.59 in 16 mi South 8.9 mph - -   Mostly Cloudy
10:20 PM 48.2 °F - 39.2 °F 71% 29.56 in 6.2 mi South 11.5 mph - N/A Rain Light Rain
10:50 PM 48.2 °F - 39.2 °F 71% 29.56 in 6.2 mi South 10.4 mph - N/A   Partly Cloudy
11:20 PM 48.2 °F - 39.2 °F 71% 29.56 in 6.2 mi South 11.5 mph - N/A   Partly Cloudy
11:50 PM 48.2 °F - 39.2 °F 71% 29.56 in 6.2 mi SSW 11.5 mph - N/A   Partly Cloudy